owner,sensor,date,latitude,longitude,vertical_datum,sea_water_practical_salinity,qcFlag 
SCCF RECON,ioos:station:SCCF:12:1,2009-11-01T00:00:00Z,26.4966,-82.1479,2.35,32.22,1111122 
SCCF RECON,ioos:station:SCCF:12:1,2009-11-01T01:00:00Z,26.4966,-82.1479,2.46,32.22,1111122 
SCCF RECON,ioos:station:SCCF:12:1,2009-11-01T02:00:00Z,26.4966,-82.1479,2.58,32.22,1111122 
SCCF RECON,ioos:station:SCCF:12:1,2009-11-01T03:00:00Z,26.4966,-82.1479,2.67,32.24,1111122 
SCCF RECON,ioos:station:SCCF:12:1,2009-11-01T04:00:00Z,26.4966,-82.1479,2.71,32.24,1111122 
SCCF RECON,ioos:station:SCCF:12:1,2009-11-01T05:00:00Z,26.4966,-82.1479,2.69,32.25,1111122 
SCCF RECON,ioos:station:SCCF:12:1,2009-11-01T06:00:00Z,26.4966,-82.1479,2.599,32.24,1111122 
SCCF RECON,ioos:station:SCCF:12:1,2009-11-01T07:00:00Z,26.4966,-82.1479,2.444,32.22,1111122 
SCCF RECON,ioos:station:SCCF:12:1,2009-11-01T08:00:00Z,26.4966,-82.1479,2.3,32.23,1111122 
SCCF RECON,ioos:station:SCCF:12:1,2009-11-01T09:00:00Z,26.4966,-82.1479,2.17,32.22,1111122 
SCCF RECON,ioos:station:SCCF:12:1,2009-11-01T10:00:00Z,26.4966,-82.1479,2.052,32.2,1111122 
SCCF RECON,ioos:station:SCCF:12:1,2009-11-01T11:00:00Z,26.4966,-82.1479,1.97,32.22,1111122 
SCCF RECON,ioos:station:SCCF:12:1,2009-11-01T12:00:00Z,26.4966,-82.1479,1.957,32.24,1111122 
SCCF RECON,ioos:station:SCCF:12:1,2009-11-01T13:00:00Z,26.4966,-82.1479,2.069,32.26,1111122 
SCCF RECON,ioos:station:SCCF:12:1,2009-11-01T14:00:00Z,26.4966,-82.1479,2.24,32.24,1111122 
SCCF RECON,ioos:station:SCCF:12:1,2009-11-01T15:00:00Z,26.4966,-82.1479,2.406,32.25,1111122 
SCCF RECON,ioos:station:SCCF:12:1,2009-11-01T16:00:00Z,26.4966,-82.1479,2.519,32.24,1111122 
SCCF RECON,ioos:station:SCCF:12:1,2009-11-01T17:00:00Z,26.4966,-82.1479,2.57,32.25,1111122 
SCCF RECON,ioos:station:SCCF:12:1,2009-11-01T18:00:00Z,26.4966,-82.1479,2.571,32.23,1111122 
SCCF RECON,ioos:station:SCCF:12:1,2009-11-01T19:00:00Z,26.4966,-82.1479,2.51,32.22,1111122 
SCCF RECON,ioos:station:SCCF:12:1,2009-11-01T20:00:00Z,26.4966,-82.1479,2.418,32.28,1111122 
SCCF RECON,ioos:station:SCCF:12:1,2009-11-01T21:00:00Z,26.4966,-82.1479,2.341,32.29,1111122 
SCCF RECON,ioos:station:SCCF:12:1,2009-11-01T22:00:00Z,26.4966,-82.1479,2.32,32.28,1111122 
SCCF RECON,ioos:station:SCCF:12:1,2009-11-01T23:00:00Z,26.4966,-82.1479,2.322,32.23,1111122 
SCCF RECON,ioos:station:SCCF:12:1,2009-11-02T00:00:00Z,26.4966,-82.1479,2.344,32.26,1111122 
SCCF RECON,ioos:station:SCCF:12:1,2009-11-02T01:00:00Z,26.4966,-82.1479,2.412,32.28,1111122 
SCCF RECON,ioos:station:SCCF:12:1,2009-11-02T02:00:00Z,26.4966,-82.1479,2.533,32.31,1111122 
SCCF RECON,ioos:station:SCCF:12:1,2009-11-02T03:00:00Z,26.4966,-82.1479,2.644,32.45,1111122 
SCCF RECON,ioos:station:SCCF:12:1,2009-11-02T04:00:00Z,26.4966,-82.1479,2.72,32.5,1111122 
SCCF RECON,ioos:station:SCCF:12:1,2009-11-02T05:00:00Z,26.4966,-82.1479,2.744,32.51,1111122 
SCCF RECON,ioos:station:SCCF:12:1,2009-11-02T06:00:00Z,26.4966,-82.1479,2.66,32.46,1111122 
SCCF RECON,ioos:station:SCCF:12:1,2009-11-02T07:00:00Z,26.4966,-82.1479,2.516,32.37,1111122 
SCCF RECON,ioos:station:SCCF:12:1,2009-11-02T08:00:00Z,26.4966,-82.1479,2.357,32.36,1111122 
SCCF RECON,ioos:station:SCCF:12:1,2009-11-02T09:00:00Z,26.4966,-82.1479,2.214,32.41,1111122 
SCCF RECON,ioos:station:SCCF:12:1,2009-11-02T10:00:00Z,26.4966,-82.1479,2.086,32.43,1111122 
SCCF RECON,ioos:station:SCCF:12:1,2009-11-02T11:00:00Z,26.4966,-82.1479,1.983,32.38,1111122 
SCCF RECON,ioos:station:SCCF:12:1,2009-11-02T12:00:00Z,26.4966,-82.1479,1.916,32.45,1111122 
SCCF RECON,ioos:station:SCCF:12:1,2009-11-02T13:00:00Z,26.4966,-82.1479,1.949,32.65,1111122 
SCCF RECON,ioos:station:SCCF:12:1,2009-11-02T14:00:00Z,26.4966,-82.1479,2.117,32.61,1111122 
SCCF RECON,ioos:station:SCCF:12:1,2009-11-02T15:00:00Z,26.4966,-82.1479,2.29,32.54,1111122 
SCCF RECON,ioos:station:SCCF:12:1,2009-11-02T16:00:00Z,26.4966,-82.1479,2.434,32.57,1111122 
SCCF RECON,ioos:station:SCCF:12:1,2009-11-02T17:00:00Z,26.4966,-82.1479,2.535,32.62,1111122 
SCCF RECON,ioos:station:SCCF:12:1,2009-11-02T18:00:00Z,26.4966,-82.1479,2.577,32.61,1111122 
SCCF RECON,ioos:station:SCCF:12:1,2009-11-02T19:00:00Z,26.4966,-82.1479,2.553,32.51,1111122 
SCCF RECON,ioos:station:SCCF:12:1,2009-11-02T20:00:00Z,26.4966,-82.1479,2.472,32.42,1111122 
SCCF RECON,ioos:station:SCCF:12:1,2009-11-02T21:00:00Z,26.4966,-82.1479,2.393,32.37,1111122 
SCCF RECON,ioos:station:SCCF:12:1,2009-11-02T22:00:00Z,26.4966,-82.1479,2.354,32.38,1111122 
SCCF RECON,ioos:station:SCCF:12:1,2009-11-02T23:00:00Z,26.4966,-82.1479,2.359,32.44,1111122 
SCCF RECON,ioos:station:SCCF:12:1,2009-11-03T00:00:00Z,26.4966,-82.1479,2.372,32.46,1111122 
SCCF RECON,ioos:station:SCCF:12:1,2009-11-03T01:00:00Z,26.4966,-82.1479,2.43,32.58,1111122 
SCCF RECON,ioos:station:SCCF:12:1,2009-11-03T02:00:00Z,26.4966,-82.1479,2.53,32.65,1111122 
SCCF RECON,ioos:station:SCCF:12:1,2009-11-03T03:00:00Z,26.4966,-82.1479,2.64,32.87,1111122 
SCCF RECON,ioos:station:SCCF:12:1,2009-11-03T04:00:00Z,26.4966,-82.1479,2.723,32.86,1111122 
SCCF RECON,ioos:station:SCCF:12:1,2009-11-03T05:00:00Z,26.4966,-82.1479,2.741,32.97,1111122 
SCCF RECON,ioos:station:SCCF:12:1,2009-11-03T06:00:00Z,26.4966,-82.1479,2.696,32.87,1111122 
SCCF RECON,ioos:station:SCCF:12:1,2009-11-03T07:00:00Z,26.4966,-82.1479,2.591,32.78,1111122 
SCCF RECON,ioos:station:SCCF:12:1,2009-11-03T08:00:00Z,26.4966,-82.1479,2.449,32.74,1111122 
SCCF RECON,ioos:station:SCCF:12:1,2009-11-03T09:00:00Z,26.4966,-82.1479,2.295,32.71,1111122 
SCCF RECON,ioos:station:SCCF:12:1,2009-11-03T10:00:00Z,26.4966,-82.1479,2.15,32.71,1111122 
SCCF RECON,ioos:station:SCCF:12:1,2009-11-03T11:00:00Z,26.4966,-82.1479,2.024,32.71,1111122 
SCCF RECON,ioos:station:SCCF:12:1,2009-11-03T12:00:00Z,26.4966,-82.1479,1.92,32.78,1111122 
SCCF RECON,ioos:station:SCCF:12:1,2009-11-03T13:00:00Z,26.4966,-82.1479,1.86,32.83,1111122 
SCCF RECON,ioos:station:SCCF:12:1,2009-11-03T14:00:00Z,26.4966,-82.1479,1.911,32.77,1111122 
SCCF RECON,ioos:station:SCCF:12:1,2009-11-03T15:00:00Z,26.4966,-82.1479,2.096,32.85,1111122 
SCCF RECON,ioos:station:SCCF:12:1,2009-11-03T16:00:00Z,26.4966,-82.1479,2.262,32.95,1111122 
SCCF RECON,ioos:station:SCCF:12:1,2009-11-03T17:00:00Z,26.4966,-82.1479,2.388,32.77,1111122 
SCCF RECON,ioos:station:SCCF:12:1,2009-11-03T18:00:00Z,26.4966,-82.1479,2.47,32.78,1111122 
SCCF RECON,ioos:station:SCCF:12:1,2009-11-03T19:00:00Z,26.4966,-82.1479,2.506,32.78,1111122 
SCCF RECON,ioos:station:SCCF:12:1,2009-11-03T20:00:00Z,26.4966,-82.1479,2.479,32.69,1111122 
SCCF RECON,ioos:station:SCCF:12:1,2009-11-03T21:00:00Z,26.4966,-82.1479,2.4,32.62,1111122 
SCCF RECON,ioos:station:SCCF:12:1,2009-11-03T22:00:00Z,26.4966,-82.1479,2.35,32.56,1111122 
SCCF RECON,ioos:station:SCCF:12:1,2009-11-03T23:00:00Z,26.4966,-82.1479,2.321,32.64,1111122 
SCCF RECON,ioos:station:SCCF:12:1,2009-11-04T00:00:00Z,26.4966,-82.1479,2.309,32.59,1111122 
SCCF RECON,ioos:station:SCCF:12:1,2009-11-04T01:00:00Z,26.4966,-82.1479,2.357,32.71,1111122 
SCCF RECON,ioos:station:SCCF:12:1,2009-11-04T02:00:00Z,26.4966,-82.1479,2.449,32.75,1111122 
SCCF RECON,ioos:station:SCCF:12:1,2009-11-04T03:00:00Z,26.4966,-82.1479,2.564,32.8,1111122 
SCCF RECON,ioos:station:SCCF:12:1,2009-11-04T04:00:00Z,26.4966,-82.1479,2.655,32.82,1111122 
SCCF RECON,ioos:station:SCCF:12:1,2009-11-04T05:00:00Z,26.4966,-82.1479,2.695,32.83,1111122 
SCCF RECON,ioos:station:SCCF:12:1,2009-11-04T06:00:00Z,26.4966,-82.1479,2.681,32.82,1111122 
SCCF RECON,ioos:station:SCCF:12:1,2009-11-04T07:00:00Z,26.4966,-82.1479,2.605,32.87,1111122 
SCCF RECON,ioos:station:SCCF:12:1,2009-11-04T08:00:00Z,26.4966,-82.1479,2.484,32.83,1111122 
SCCF RECON,ioos:station:SCCF:12:1,2009-11-04T09:00:00Z,26.4966,-82.1479,2.328,32.82,1111122 
SCCF RECON,ioos:station:SCCF:12:1,2009-11-04T10:00:00Z,26.4966,-82.1479,2.187,32.82,1111122 
SCCF RECON,ioos:station:SCCF:12:1,2009-11-04T11:00:00Z,26.4966,-82.1479,2.049,32.82,1111122 
SCCF RECON,ioos:station:SCCF:12:1,2009-11-04T12:00:00Z,26.4966,-82.1479,1.923,32.87,1111122 
SCCF RECON,ioos:station:SCCF:12:1,2009-11-04T13:00:00Z,26.4966,-82.1479,1.812,32.88,1111122 
SCCF RECON,ioos:station:SCCF:12:1,2009-11-04T14:00:00Z,26.4966,-82.1479,1.751,32.94,1111122 
SCCF RECON,ioos:station:SCCF:12:1,2009-11-04T15:00:00Z,26.4966,-82.1479,1.858,32.93,1111122 
SCCF RECON,ioos:station:SCCF:12:1,2009-11-04T17:00:00Z,26.4966,-82.1479,2.2,32.81,1111122 
SCCF RECON,ioos:station:SCCF:12:1,2009-11-04T18:00:00Z,26.4966,-82.1479,2.328,32.92,1111122 
SCCF RECON,ioos:station:SCCF:12:1,2009-11-04T19:00:00Z,26.4966,-82.1479,2.413,33.02,1111122 
SCCF RECON,ioos:station:SCCF:12:1,2009-11-04T20:00:00Z,26.4966,-82.1479,2.458,32.9,1111122 
SCCF RECON,ioos:station:SCCF:12:1,2009-11-04T21:00:00Z,26.4966,-82.1479,2.444,32.81,1111122 
SCCF RECON,ioos:station:SCCF:12:1,2009-11-04T22:00:00Z,26.4966,-82.1479,2.42,32.67,1111122 
SCCF RECON,ioos:station:SCCF:12:1,2009-11-04T23:00:00Z,26.4966,-82.1479,2.407,32.6,1111122 
SCCF RECON,ioos:station:SCCF:12:1,2009-11-05T00:00:00Z,26.4966,-82.1479,2.386,32.57,1111122 
SCCF RECON,ioos:station:SCCF:12:1,2009-11-05T01:00:00Z,26.4966,-82.1479,2.391,32.56,1111122 
SCCF RECON,ioos:station:SCCF:12:1,2009-11-05T02:00:00Z,26.4966,-82.1479,2.45,32.57,1111122 
SCCF RECON,ioos:station:SCCF:12:1,2009-11-05T03:00:00Z,26.4966,-82.1479,2.531,32.59,1111122 
SCCF RECON,ioos:station:SCCF:12:1,2009-11-05T04:00:00Z,26.4966,-82.1479,2.629,32.63,1111122 
SCCF RECON,ioos:station:SCCF:12:1,2009-11-05T05:00:00Z,26.4966,-82.1479,2.697,32.68,1111122 
SCCF RECON,ioos:station:SCCF:12:1,2009-11-05T06:00:00Z,26.4966,-82.1479,2.7,32.7,1111122 
SCCF RECON,ioos:station:SCCF:12:1,2009-11-05T07:00:00Z,26.4966,-82.1479,2.657,32.69,1111122 
SCCF RECON,ioos:station:SCCF:12:1,2009-11-05T08:00:00Z,26.4966,-82.1479,2.588,32.68,1111122 
SCCF RECON,ioos:station:SCCF:12:1,2009-11-05T09:00:00Z,26.4966,-82.1479,2.474,32.69,1111122 
SCCF RECON,ioos:station:SCCF:12:1,2009-11-05T10:00:00Z,26.4966,-82.1479,2.337,32.74,1111122 
SCCF RECON,ioos:station:SCCF:12:1,2009-11-05T11:00:00Z,26.4966,-82.1479,2.193,32.86,1111122 
SCCF RECON,ioos:station:SCCF:12:1,2009-11-05T12:00:00Z,26.4966,-82.1479,2.065,32.87,1111122 
SCCF RECON,ioos:station:SCCF:12:1,2009-11-05T13:00:00Z,26.4966,-82.1479,1.942,32.84,1111122 
SCCF RECON,ioos:station:SCCF:12:1,2009-11-05T14:00:00Z,26.4966,-82.1479,1.832,33.06,1111122 
SCCF RECON,ioos:station:SCCF:12:1,2009-11-05T15:00:00Z,26.4966,-82.1479,1.779,33.08,1111122 
SCCF RECON,ioos:station:SCCF:12:1,2009-11-05T16:00:00Z,26.4966,-82.1479,1.85,33.04,1111122 
SCCF RECON,ioos:station:SCCF:12:1,2009-11-05T17:00:00Z,26.4966,-82.1479,2.02,32.89,1111122 
SCCF RECON,ioos:station:SCCF:12:1,2009-11-05T18:00:00Z,26.4966,-82.1479,2.161,32.82,1111122 
SCCF RECON,ioos:station:SCCF:12:1,2009-11-05T19:00:00Z,26.4966,-82.1479,2.269,32.81,1111122 
SCCF RECON,ioos:station:SCCF:12:1,2009-11-05T20:00:00Z,26.4966,-82.1479,2.354,32.76,1111122 
SCCF RECON,ioos:station:SCCF:12:1,2009-11-05T21:00:00Z,26.4966,-82.1479,2.397,32.92,1111122 
SCCF RECON,ioos:station:SCCF:12:1,2009-11-05T22:00:00Z,26.4966,-82.1479,2.376,32.97,1111122 
SCCF RECON,ioos:station:SCCF:12:1,2009-11-05T23:00:00Z,26.4966,-82.1479,2.321,32.92,1111122 
SCCF RECON,ioos:station:SCCF:12:1,2009-11-06T00:00:00Z,26.4966,-82.1479,2.297,32.9,1111122 
SCCF RECON,ioos:station:SCCF:12:1,2009-11-06T01:00:00Z,26.4966,-82.1479,2.307,32.88,1111122 
SCCF RECON,ioos:station:SCCF:12:1,2009-11-06T02:00:00Z,26.4966,-82.1479,2.353,32.81,1111122 
SCCF RECON,ioos:station:SCCF:12:1,2009-11-06T03:00:00Z,26.4966,-82.1479,2.382,32.85,1111122 
SCCF RECON,ioos:station:SCCF:12:1,2009-11-06T04:00:00Z,26.4966,-82.1479,2.424,32.96,1111122 
SCCF RECON,ioos:station:SCCF:12:1,2009-11-06T05:00:00Z,26.4966,-82.1479,2.504,32.78,1111122 
SCCF RECON,ioos:station:SCCF:12:1,2009-11-06T06:00:00Z,26.4966,-82.1479,2.531,32.92,1111122 
SCCF RECON,ioos:station:SCCF:12:1,2009-11-06T07:00:00Z,26.4966,-82.1479,2.518,32.95,1111122 
SCCF RECON,ioos:station:SCCF:12:1,2009-11-06T08:00:00Z,26.4966,-82.1479,2.49,33.09,1111122 
SCCF RECON,ioos:station:SCCF:12:1,2009-11-06T09:00:00Z,26.4966,-82.1479,2.434,33.11,1111122 
SCCF RECON,ioos:station:SCCF:12:1,2009-11-06T10:00:00Z,26.4966,-82.1479,2.326,33.09,1111122 
SCCF RECON,ioos:station:SCCF:12:1,2009-11-06T11:00:00Z,26.4966,-82.1479,2.2,33.0,1111122 
SCCF RECON,ioos:station:SCCF:12:1,2009-11-06T12:00:00Z,26.4966,-82.1479,2.078,33.02,1111122 
SCCF RECON,ioos:station:SCCF:12:1,2009-11-06T13:00:00Z,26.4966,-82.1479,1.946,33.04,1111122 
SCCF RECON,ioos:station:SCCF:12:1,2009-11-06T14:00:00Z,26.4966,-82.1479,1.825,33.15,1111122 
SCCF RECON,ioos:station:SCCF:12:1,2009-11-06T15:00:00Z,26.4966,-82.1479,1.728,33.37,1111122 
SCCF RECON,ioos:station:SCCF:12:1,2009-11-06T16:00:00Z,26.4966,-82.1479,1.697,33.63,1111122 
SCCF RECON,ioos:station:SCCF:12:1,2009-11-06T17:00:00Z,26.4966,-82.1479,1.798,33.77,1111122 
SCCF RECON,ioos:station:SCCF:12:1,2009-11-06T18:00:00Z,26.4966,-82.1479,1.955,33.77,1111122 
SCCF RECON,ioos:station:SCCF:12:1,2009-11-06T19:00:00Z,26.4966,-82.1479,2.098,33.56,1111122 
SCCF RECON,ioos:station:SCCF:12:1,2009-11-06T20:00:00Z,26.4966,-82.1479,2.205,33.5,1111122 
SCCF RECON,ioos:station:SCCF:12:1,2009-11-06T21:00:00Z,26.4966,-82.1479,2.293,33.59,1111122 
SCCF RECON,ioos:station:SCCF:12:1,2009-11-06T22:00:00Z,26.4966,-82.1479,2.311,33.34,1111122 
SCCF RECON,ioos:station:SCCF:12:1,2009-11-06T23:00:00Z,26.4966,-82.1479,2.303,33.14,1111122 
SCCF RECON,ioos:station:SCCF:12:1,2009-11-07T00:00:00Z,26.4966,-82.1479,2.286,33.04,1111122 
SCCF RECON,ioos:station:SCCF:12:1,2009-11-07T01:00:00Z,26.4966,-82.1479,2.271,32.97,1111122 
SCCF RECON,ioos:station:SCCF:12:1,2009-11-07T02:00:00Z,26.4966,-82.1479,2.277,32.95,1111122 
SCCF RECON,ioos:station:SCCF:12:1,2009-11-07T03:00:00Z,26.4966,-82.1479,2.309,32.96,1111122 
SCCF RECON,ioos:station:SCCF:12:1,2009-11-07T04:00:00Z,26.4966,-82.1479,2.37,33.02,1111122 
SCCF RECON,ioos:station:SCCF:12:1,2009-11-07T05:00:00Z,26.4966,-82.1479,2.442,33.22,1111122 
SCCF RECON,ioos:station:SCCF:12:1,2009-11-07T06:00:00Z,26.4966,-82.1479,2.516,33.33,1111122 
SCCF RECON,ioos:station:SCCF:12:1,2009-11-07T07:00:00Z,26.4966,-82.1479,2.55,33.32,1111122 
SCCF RECON,ioos:station:SCCF:12:1,2009-11-07T08:00:00Z,26.4966,-82.1479,2.576,33.36,1111122 
SCCF RECON,ioos:station:SCCF:12:1,2009-11-07T09:00:00Z,26.4966,-82.1479,2.597,33.36,1111122 
SCCF RECON,ioos:station:SCCF:12:1,2009-11-07T10:00:00Z,26.4966,-82.1479,2.531,33.34,1111122 
SCCF RECON,ioos:station:SCCF:12:1,2009-11-07T11:00:00Z,26.4966,-82.1479,2.429,33.37,1111122 
SCCF RECON,ioos:station:SCCF:12:1,2009-11-07T12:00:00Z,26.4966,-82.1479,2.298,33.38,1111122 
SCCF RECON,ioos:station:SCCF:12:1,2009-11-07T13:00:00Z,26.4966,-82.1479,2.161,33.42,1111122 
SCCF RECON,ioos:station:SCCF:12:1,2009-11-07T14:00:00Z,26.4966,-82.1479,2.046,33.41,1111122 
SCCF RECON,ioos:station:SCCF:12:1,2009-11-07T15:00:00Z,26.4966,-82.1479,1.938,33.42,1111122 
SCCF RECON,ioos:station:SCCF:12:1,2009-11-07T16:00:00Z,26.4966,-82.1479,1.861,33.42,1111122 
SCCF RECON,ioos:station:SCCF:12:1,2009-11-07T17:00:00Z,26.4966,-82.1479,1.859,33.48,1111122 
SCCF RECON,ioos:station:SCCF:12:1,2009-11-07T18:00:00Z,26.4966,-82.1479,1.992,33.5,1111122 
SCCF RECON,ioos:station:SCCF:12:1,2009-11-07T19:00:00Z,26.4966,-82.1479,2.13,33.32,1111122 
SCCF RECON,ioos:station:SCCF:12:1,2009-11-07T20:00:00Z,26.4966,-82.1479,2.251,33.18,1111122 
SCCF RECON,ioos:station:SCCF:12:1,2009-11-07T21:00:00Z,26.4966,-82.1479,2.334,33.44,1111122 
SCCF RECON,ioos:station:SCCF:12:1,2009-11-07T22:00:00Z,26.4966,-82.1479,2.392,33.54,1111122 
SCCF RECON,ioos:station:SCCF:12:1,2009-11-07T23:00:00Z,26.4966,-82.1479,2.401,33.26,1111122 
SCCF RECON,ioos:station:SCCF:12:1,2009-11-08T00:00:00Z,26.4966,-82.1479,2.353,32.8,1111122 
SCCF RECON,ioos:station:SCCF:12:1,2009-11-08T01:00:00Z,26.4966,-82.1479,2.298,32.5,1111122 
SCCF RECON,ioos:station:SCCF:12:1,2009-11-08T02:00:00Z,26.4966,-82.1479,2.267,32.49,1111122 
SCCF RECON,ioos:station:SCCF:12:1,2009-11-08T03:00:00Z,26.4966,-82.1479,2.27,32.68,1111122 
SCCF RECON,ioos:station:SCCF:12:1,2009-11-08T04:00:00Z,26.4966,-82.1479,2.299,32.62,1111122 
SCCF RECON,ioos:station:SCCF:12:1,2009-11-08T05:00:00Z,26.4966,-82.1479,2.35,32.86,1111122 
SCCF RECON,ioos:station:SCCF:12:1,2009-11-08T06:00:00Z,26.4966,-82.1479,2.426,33.13,1111122 
SCCF RECON,ioos:station:SCCF:12:1,2009-11-08T07:00:00Z,26.4966,-82.1479,2.53,33.3,1111122 
SCCF RECON,ioos:station:SCCF:12:1,2009-11-08T08:00:00Z,26.4966,-82.1479,2.616,33.39,1111122 
SCCF RECON,ioos:station:SCCF:12:1,2009-11-08T09:00:00Z,26.4966,-82.1479,2.642,33.35,1111122 
SCCF RECON,ioos:station:SCCF:12:1,2009-11-08T10:00:00Z,26.4966,-82.1479,2.617,33.36,1111122 
SCCF RECON,ioos:station:SCCF:12:1,2009-11-08T11:00:00Z,26.4966,-82.1479,2.541,33.36,1111122 
SCCF RECON,ioos:station:SCCF:12:1,2009-11-08T12:00:00Z,26.4966,-82.1479,2.439,33.36,1111122 
SCCF RECON,ioos:station:SCCF:12:1,2009-11-08T13:00:00Z,26.4966,-82.1479,2.322,33.36,1111122 
SCCF RECON,ioos:station:SCCF:12:1,2009-11-08T14:00:00Z,26.4966,-82.1479,2.209,33.36,1111122 
SCCF RECON,ioos:station:SCCF:12:1,2009-11-08T15:00:00Z,26.4966,-82.1479,2.092,33.29,1111122 
SCCF RECON,ioos:station:SCCF:12:1,2009-11-08T16:00:00Z,26.4966,-82.1479,1.985,33.08,1111122 
SCCF RECON,ioos:station:SCCF:12:1,2009-11-08T17:00:00Z,26.4966,-82.1479,1.93,33.17,1111122 
SCCF RECON,ioos:station:SCCF:12:1,2009-11-08T18:00:00Z,26.4966,-82.1479,1.961,33.28,1111122 
SCCF RECON,ioos:station:SCCF:12:1,2009-11-08T19:00:00Z,26.4966,-82.1479,2.075,33.21,1111122 
SCCF RECON,ioos:station:SCCF:12:1,2009-11-08T20:00:00Z,26.4966,-82.1479,2.199,33.22,1111122 
SCCF RECON,ioos:station:SCCF:12:1,2009-11-08T21:00:00Z,26.4966,-82.1479,2.297,32.91,1111122 
SCCF RECON,ioos:station:SCCF:12:1,2009-11-08T22:00:00Z,26.4966,-82.1479,2.377,32.91,1111122 
SCCF RECON,ioos:station:SCCF:12:1,2009-11-08T23:00:00Z,26.4966,-82.1479,2.438,32.53,1111122 
SCCF RECON,ioos:station:SCCF:12:1,2009-11-09T00:00:00Z,26.4966,-82.1479,2.455,32.33,1111122 
SCCF RECON,ioos:station:SCCF:12:1,2009-11-09T01:00:00Z,26.4966,-82.1479,2.444,31.77,1111122 
SCCF RECON,ioos:station:SCCF:12:1,2009-11-09T02:00:00Z,26.4966,-82.1479,2.41,31.55,1111122 
SCCF RECON,ioos:station:SCCF:12:1,2009-11-09T03:00:00Z,26.4966,-82.1479,2.371,31.49,1111122 
SCCF RECON,ioos:station:SCCF:12:1,2009-11-09T04:00:00Z,26.4966,-82.1479,2.335,31.45,1111122 
SCCF RECON,ioos:station:SCCF:12:1,2009-11-09T05:00:00Z,26.4966,-82.1479,2.37,31.37,1111122 
SCCF RECON,ioos:station:SCCF:12:1,2009-11-09T06:00:00Z,26.4966,-82.1479,2.437,31.07,1111122 
SCCF RECON,ioos:station:SCCF:12:1,2009-11-09T07:00:00Z,26.4966,-82.1479,2.505,30.96,1111122 
SCCF RECON,ioos:station:SCCF:12:1,2009-11-09T08:00:00Z,26.4966,-82.1479,2.599,30.9,1111122 
SCCF RECON,ioos:station:SCCF:12:1,2009-11-09T09:00:00Z,26.4966,-82.1479,2.668,30.69,1111122 
SCCF RECON,ioos:station:SCCF:12:1,2009-11-09T10:00:00Z,26.4966,-82.1479,2.726,31.01,1111122 
SCCF RECON,ioos:station:SCCF:12:1,2009-11-09T11:00:00Z,26.4966,-82.1479,2.75,30.89,1111122 
SCCF RECON,ioos:station:SCCF:12:1,2009-11-09T12:00:00Z,26.4966,-82.1479,2.716,31.07,1111122 
SCCF RECON,ioos:station:SCCF:12:1,2009-11-09T13:00:00Z,26.4966,-82.1479,2.627,30.95,1111122 
SCCF RECON,ioos:station:SCCF:12:1,2009-11-09T14:00:00Z,26.4966,-82.1479,2.516,30.93,1111122 
SCCF RECON,ioos:station:SCCF:12:1,2009-11-09T15:00:00Z,26.4966,-82.1479,2.4,30.88,1111122 
SCCF RECON,ioos:station:SCCF:12:1,2009-11-09T16:00:00Z,26.4966,-82.1479,2.285,30.87,1111122 
SCCF RECON,ioos:station:SCCF:12:1,2009-11-09T17:00:00Z,26.4966,-82.1479,2.195,30.83,1111122 
SCCF RECON,ioos:station:SCCF:12:1,2009-11-09T18:00:00Z,26.4966,-82.1479,2.173,30.89,1111122 
SCCF RECON,ioos:station:SCCF:12:1,2009-11-09T19:00:00Z,26.4966,-82.1479,2.244,30.7,1111122 
SCCF RECON,ioos:station:SCCF:12:1,2009-11-09T20:00:00Z,26.4966,-82.1479,2.359,30.65,1111122 
SCCF RECON,ioos:station:SCCF:12:1,2009-11-09T21:00:00Z,26.4966,-82.1479,2.472,30.8,1111122 
SCCF RECON,ioos:station:SCCF:12:1,2009-11-09T22:00:00Z,26.4966,-82.1479,2.562,30.7,1111122 
SCCF RECON,ioos:station:SCCF:12:1,2009-11-09T23:00:00Z,26.4966,-82.1479,2.66,30.76,1111122 
SCCF RECON,ioos:station:SCCF:12:1,2009-11-10T00:00:00Z,26.4966,-82.1479,2.716,30.8,1111122 
SCCF RECON,ioos:station:SCCF:12:1,2009-11-10T01:00:00Z,26.4966,-82.1479,2.73,30.83,1111122 
SCCF RECON,ioos:station:SCCF:12:1,2009-11-10T02:00:00Z,26.4966,-82.1479,2.698,30.85,1111122 
SCCF RECON,ioos:station:SCCF:12:1,2009-11-10T03:00:00Z,26.4966,-82.1479,2.628,30.84,1111122 
SCCF RECON,ioos:station:SCCF:12:1,2009-11-10T04:00:00Z,26.4966,-82.1479,2.56,30.84,1111122 
SCCF RECON,ioos:station:SCCF:12:1,2009-11-10T05:00:00Z,26.4966,-82.1479,2.509,30.85,1111122 
SCCF RECON,ioos:station:SCCF:12:1,2009-11-10T06:00:00Z,26.4966,-82.1479,2.47,30.82,1111122 
SCCF RECON,ioos:station:SCCF:12:1,2009-11-10T07:00:00Z,26.4966,-82.1479,2.435,30.83,1111122 
SCCF RECON,ioos:station:SCCF:12:1,2009-11-10T08:00:00Z,26.4966,-82.1479,2.477,30.84,1111122 
SCCF RECON,ioos:station:SCCF:12:1,2009-11-10T09:00:00Z,26.4966,-82.1479,2.54,30.82,1111122 
SCCF RECON,ioos:station:SCCF:12:1,2009-11-10T10:00:00Z,26.4966,-82.1479,2.638,30.81,1111122 
SCCF RECON,ioos:station:SCCF:12:1,2009-11-10T11:00:00Z,26.4966,-82.1479,2.64,30.76,1111122 
SCCF RECON,ioos:station:SCCF:12:1,2009-11-10T12:00:00Z,26.4966,-82.1479,2.689,30.8,1111122 
SCCF RECON,ioos:station:SCCF:12:1,2009-11-10T13:00:00Z,26.4966,-82.1479,2.73,30.85,1111122 
SCCF RECON,ioos:station:SCCF:12:1,2009-11-10T14:00:00Z,26.4966,-82.1479,2.68,31.49,1111122 
SCCF RECON,ioos:station:SCCF:12:1,2009-11-10T15:00:00Z,26.4966,-82.1479,2.597,32.07,1111122 
SCCF RECON,ioos:station:SCCF:12:1,2009-11-10T16:00:00Z,26.4966,-82.1479,2.505,32.16,1111122 
SCCF RECON,ioos:station:SCCF:12:1,2009-11-10T17:00:00Z,26.4966,-82.1479,2.411,32.16,1111122 
SCCF RECON,ioos:station:SCCF:12:1,2009-11-10T18:00:00Z,26.4966,-82.1479,2.32,31.99,1111122 
SCCF RECON,ioos:station:SCCF:12:1,2009-11-10T19:00:00Z,26.4966,-82.1479,2.268,31.97,1111122 
SCCF RECON,ioos:station:SCCF:12:1,2009-11-10T20:00:00Z,26.4966,-82.1479,2.298,32.13,1111122 
SCCF RECON,ioos:station:SCCF:12:1,2009-11-10T21:00:00Z,26.4966,-82.1479,2.402,32.34,1111122 
SCCF RECON,ioos:station:SCCF:12:1,2009-11-10T22:00:00Z,26.4966,-82.1479,2.521,32.33,1111122 
SCCF RECON,ioos:station:SCCF:12:1,2009-11-10T23:00:00Z,26.4966,-82.1479,2.619,32.25,1111122 
SCCF RECON,ioos:station:SCCF:12:1,2009-11-11T00:00:00Z,26.4966,-82.1479,2.69,32.34,1111122 
SCCF RECON,ioos:station:SCCF:12:1,2009-11-11T01:00:00Z,26.4966,-82.1479,2.74,32.14,1111122 
SCCF RECON,ioos:station:SCCF:12:1,2009-11-11T02:00:00Z,26.4966,-82.1479,2.717,32.83,1111122 
SCCF RECON,ioos:station:SCCF:12:1,2009-11-11T03:00:00Z,26.4966,-82.1479,2.635,32.78,1111122 
SCCF RECON,ioos:station:SCCF:12:1,2009-11-11T04:00:00Z,26.4966,-82.1479,2.551,32.9,1111122 
SCCF RECON,ioos:station:SCCF:12:1,2009-11-11T05:00:00Z,26.4966,-82.1479,2.47,33.13,1111122 
SCCF RECON,ioos:station:SCCF:12:1,2009-11-11T06:00:00Z,26.4966,-82.1479,2.398,33.25,1111122 
SCCF RECON,ioos:station:SCCF:12:1,2009-11-11T07:00:00Z,26.4966,-82.1479,2.33,32.98,1111122 
SCCF RECON,ioos:station:SCCF:12:1,2009-11-11T08:00:00Z,26.4966,-82.1479,2.289,33.01,1111122 
SCCF RECON,ioos:station:SCCF:12:1,2009-11-11T09:00:00Z,26.4966,-82.1479,2.35,33.09,1111122 
SCCF RECON,ioos:station:SCCF:12:1,2009-11-11T10:00:00Z,26.4966,-82.1479,2.47,33.24,1111122 
SCCF RECON,ioos:station:SCCF:12:1,2009-11-11T11:00:00Z,26.4966,-82.1479,2.55,33.12,1111122 
SCCF RECON,ioos:station:SCCF:12:1,2009-11-11T12:00:00Z,26.4966,-82.1479,2.55,33.68,1111122 
SCCF RECON,ioos:station:SCCF:12:1,2009-11-11T13:00:00Z,26.4966,-82.1479,2.56,33.91,1111122 
SCCF RECON,ioos:station:SCCF:12:1,2009-11-11T14:00:00Z,26.4966,-82.1479,2.58,34.07,1111122 
SCCF RECON,ioos:station:SCCF:12:1,2009-11-11T15:00:00Z,26.4966,-82.1479,2.56,34.18,1111122 
SCCF RECON,ioos:station:SCCF:12:1,2009-11-11T16:00:00Z,26.4966,-82.1479,2.498,34.25,1111122 
SCCF RECON,ioos:station:SCCF:12:1,2009-11-11T17:00:00Z,26.4966,-82.1479,2.393,33.87,1111122 
SCCF RECON,ioos:station:SCCF:12:1,2009-11-11T18:00:00Z,26.4966,-82.1479,2.297,33.62,1111122 